Location: Lafig�re
(44.4503°N, 4.0357°E)
Time: 04:56:49
(UTC+00:00)

Transit 2A Rocket - Pass Details

Date: 22 June 2021
Orbit: 590 x 913 km, 66.7° (Epoch: 26 July)

Event Time Altitude Azimuth Distance (km) Brightness Sun altitude
Exits shadow 01:54:00 - 278° (W) 2,804 7.7 -16.1°
Reaches altitude 10° 01:58:30 10° 323° (NW) 1,985 7.4 -15.7°
Maximum altitude 01:59:01 10° 329° (NNW) 1,981 7.5 -15.6°
Drops below altitude 10° 01:59:31 10° 336° (NNW) 1,999 7.6 -15.6°
Sets 02:04:22 0° 21° (NNE) 2,995 9.8 -15.1°
